DMSP 5D-2 F13 DEB, 42299

Orbit data source: Space-Track

DMSP 5D-2 F13 DEB, 42299 is space debris in SSO originally from a launch on Fri, 24 Mar 1995 UTC launched from the Air Force Western Test Range (AFWTR). Debris objects in space refer to the collection of defunct objects orbiting the Earth. Examples of debris include non-operational satellites, rocket bodies, and fragments generated from explosions, collisions, or faulty payload assembly.

Loading next visibility...
Identifier
42299, 1995-015HR
Orbit
SSO
Country
Flag of USUS
Related business
Manufacturer
Unknown
Mission
Spacecraft
Bus & Motor
Unknown
Mass
Unknown
Launch date (UTC)
1995-03-24 (31 years ago)
Launch vehicle
Unknown
Launch site
Air Force Western Test Range (AFWTR)
Object type
Payload
Rocket body
Debris
Shape & HBR
Unknown shape, 0.1 m
Radar Cross Section
Small (<0.1 m²)

Expand to show TLE details & history
Last TLE update: 1 month ago

TLE from 1 month ago
0 DMSP 5D-2 F13 DEB
1 42299U 95015HR  26094.16507807  .00113324  00000-0  12125-1 0  9997
2 42299  98.6926 172.2002 0013263 165.6493 194.5100 14.88048562550096
Epoch: 2026-04-04T03:57Z
TLE epoch observation values (Epoch: 2026-04-04T03:57:42.745Z)
Latitude
-0.00002°
Longitude
-79.71667°
Altitude
616.009 km
Speed
7.546 km/s
True Right ascension
11h 28m 48s
True Declination
0° 00' 00"
Sunlit
Object was in full shadow at epoch
Visualization orbit readout
Latitude
Unknown
Longitude
Unknown
Altitude
Unknown
Speed
Unknown
Apparent Right ascension
Unknown
Apparent Declination
Unknown
Sunlit
N/A
Visualization observer readout
Local Sidereal Time
03:45:20
Azimuth
Unknown
Elevation
Unknown
Doppler factor
Unknown
Orbital elements
Apogee altitude
610.357 km
Perigee altitude
591.844 km
Semi-major axis
6,979.238 km
Eccentricity
0.00133
Inclination
98.6926°
RAAN
172.2002°
Arg. of periapsis
165.6493°
True anomaly
194.47198°
Mean anomaly
194.51°
Eccentric anomaly
194.49098°
Mean motion
3.72247 °/min
Orbital period
96.71 mins
BSTAR
0.012125
Loading maneuver chart data...
Computing Atmospheric mass density...

Documentation

Showing up to 5 results
|